{"data":{"norad_id":28737,"epoch":"2026-09-19T19:39:30.491424Z","epoch_age_seconds":73270,"freshness":"FRESH","line1":"1 28737U 05024A   26262.81910291  .00004804  00000+0  20854-3 0  9994","line2":"2 28737  97.7233 295.5228 0016640  66.0887 294.2090 15.22713094162420","mean_motion":15.22713094,"eccentricity":0.001664,"inclination_deg":97.7233,"raan_deg":295.5228,"arg_perigee_deg":66.0887,"mean_anomaly_deg":294.209,"bstar":0.00020854,"rev_number":16242,"period_min":94.568044740279,"perigee_km":486.21983752682,"apogee_km":509.10249382219,"semimajor_km":6875.7981656745,"source":"CELESTRAK","updated_at":"2026-09-20T09:00:13.632984Z"}}